Satellite: GO-32
Catalog number: 25397
Epoch time:      09043.98170180
Element set:    0823
Inclination:      098.3387 deg
RA of node:       072.9050 deg
Eccentricity:    0.0000355
Arg of perigee:   250.8340 deg
Mean anomaly:     109.2815 deg
Mean motion:   14.23154860 rev/day
Decay rate:       -1.1e-07 rev/day^2
Epoch rev:           55046
Checksum:              284

Satellite: NO-44
Catalog number: 26931
Epoch time:      09044.03050286
Element set:    0098
Inclination:      067.0530 deg
RA of node:       024.2005 deg
Eccentricity:    0.0005593
Arg of perigee:   262.4713 deg
Mean anomaly:     097.5753 deg
Mean motion:   14.29545967 rev/day
Decay rate:      -2.30e-06 rev/day^2
Epoch rev:           38483
Checksum:              298

Satellite: SO-50
Catalog number: 27607
Epoch time:      09042.18114610
Element set:     812
Inclination:      064.5568 deg
RA of node:       047.7883 deg
Eccentricity:    0.0079425
Arg of perigee:   232.8766 deg
Mean anomaly:     126.4990 deg
Mean motion:   14.71413497 rev/day
Decay rate:      -1.43e-06 rev/day^2
Epoch rev:           33013
Checksum:              308

Satellite: CO-55
Catalog number: 27844
Epoch time:      09043.61119498
Element set:    0511
Inclination:      098.7160 deg
RA of node:       054.5240 deg
Eccentricity:    0.0010330
Arg of perigee:   139.1988 deg
Mean anomaly:     220.9960 deg
Mean motion:   14.20622326 rev/day
Decay rate:        6.6e-07 rev/day^2
Epoch rev:           29157
Checksum:              297

Satellite: CO-57
Catalog number: 27848
Epoch time:      09043.57145872
Element set:    0458
Inclination:      098.7166 deg
RA of node:       053.5494 deg
Eccentricity:    0.0010024
Arg of perigee:   143.5321 deg
Mean anomaly:     216.6540 deg
Mean motion:   14.20426385 rev/day
Decay rate:        2.7e-07 rev/day^2
Epoch rev:           29153
Checksum:              305

Satellite: AO-51
Catalog number: 28375
Epoch time:      09044.68317347
Element set:     316
Inclination:      098.0564 deg
RA of node:       061.4619 deg
Eccentricity:    0.0084059
Arg of perigee:   139.3613 deg
Mean anomaly:     221.3893 deg
Mean motion:   14.40632841 rev/day
Decay rate:        1.0e-08 rev/day^2
Epoch rev:           24317
Checksum:              299

Satellite: CO-56
Catalog number: 28941
Epoch time:      09044.87583201
Element set:     815
Inclination:      098.1284 deg
RA of node:       197.5955 deg
Eccentricity:    0.0120557
Arg of perigee:   234.2567 deg
Mean anomaly:     124.7322 deg
Mean motion:   15.71212238 rev/day
Decay rate:     3.5397e-04 rev/day^2
Epoch rev:           16780
Checksum:              332

Satellite: CP3
Catalog number: 31128
Epoch time:      09044.66490908
Element set:     555
Inclination:      098.0051 deg
RA of node:       103.4748 deg
Eccentricity:    0.0102252
Arg of perigee:   308.3190 deg
Mean anomaly:     050.8850 deg
Mean motion:   14.52017550 rev/day
Decay rate:       -4.8e-07 rev/day^2
Epoch rev:            9697
Checksum:              288

Satellite: CP4
Catalog number: 31132
Epoch time:      09043.89673927
Element set:    0548
Inclination:      098.0102 deg
RA of node:       106.1161 deg
Eccentricity:    0.0084442
Arg of perigee:   300.8221 deg
Mean anomaly:     058.4680 deg
Mean motion:   14.55182204 rev/day
Decay rate:        1.7e-07 rev/day^2
Epoch rev:           09695
Checksum:              282

Satellite: CO-65
Catalog number: 32785
Epoch time:      09044.72639626
Element set:     290
Inclination:      097.9624 deg
RA of node:       109.6259 deg
Eccentricity:    0.0016036
Arg of perigee:   074.2626 deg
Mean anomaly:     286.0348 deg
Mean motion:   14.81447124 rev/day
Decay rate:       -6.7e-07 rev/day^2
Epoch rev:            4316
Checksum:              323

/EX
SB KEPS @ AMSAT  $ORB09044.W
Orbital Elements  09044.WEATHER

HR AMSAT ORBITAL ELEMENTS FOR WEATHER SATELLITES
FROM WA5QGD FORT WORTH,TX February 13, 2009
Send Subscribe/unsubscribe to KEPS at 
http://www.amsat.org/mailman/listinfo/keps
BID: ORB09044.W
TO ALL RADIO AMATEURS BT

Satellite: NOAA-10
Catalog number: 16969
Epoch time:      09044.64445830
Element set:     500
Inclination:      098.7049 deg
RA of node:       071.8923 deg
Eccentricity:    0.0012155
Arg of perigee:   193.9520 deg
Mean anomaly:     166.1308 deg
Mean motion:   14.27379566 rev/day
Decay rate:      -1.02e-06 rev/day^2
Epoch rev:           16588
Checksum:              315

Satellite: NOAA-11
Catalog number: 19531
Epoch time:      09044.66602232
Element set:     511
Inclination:      098.7858 deg
RA of node:       136.5282 deg
Eccentricity:    0.0012271
Arg of perigee:   100.0262 deg
Mean anomaly:     260.2325 deg
Mean motion:   14.14888706 rev/day
Decay rate:        4.9e-07 rev/day^2
Epoch rev:            5205
Checksum:              271

Satellite: NOAA-12
Catalog number: 21263
Epoch time:      09044.78907549
Element set:       9
Inclination:      098.7729 deg
RA of node:       052.7863 deg
Eccentricity:    0.0012883
Arg of perigee:   140.7637 deg
Mean anomaly:     219.4478 deg
Mean motion:   14.25566493 rev/day
Decay rate:        1.2e-07 rev/day^2
Epoch rev:           92281
Checksum:              331

